Location: Devargunta
(16.7631°N, 80.9077°E)
Time: 19:06:28
(UTC+00:00)

ERS-2 - Pass Details

Date: 19 January 2021
Orbit: 492 x 497 km, 98.6° (Epoch: 28 February)

Event Time Altitude Azimuth Distance (km) Brightness Sun altitude
Rises 23:48:43 0° 146° (SE) 2,573 6.5 -19.1°
Reaches altitude 10° 23:51:00 10° 134° (SE) 1,691 5.7 -18.5°
Maximum altitude 23:54:06 27° 75° (ENE) 991 4.2 -17.8°
Drops below altitude 10° 23:57:11 10° 17° (NNE) 1,692 4.8 -17.1°
Sets 23:59:28 0° 5° (N) 2,575 5.6 -16.6°
